EW7419 Weather Reports


time (UTC)temp
C
wind
direction
speed
KPH
gust
KPH
rain 1hr
cm
rain 24hr
cm
rain mn
cm
humidity
%
barometer
mb
20260502164024 16 174 9.7 20.9 0.00 0.00 0.00 29 1022.0
20260502163525 16 187 9.7 20.9 0.00 0.00 0.00 31 1021.8
20260502163046 16 159 11.3 22.5 0.00 0.00 0.00 31 1021.7
20260502162524 16 149 14.5 22.5 0.00 0.00 0.00 32 1021.7
20260502162024 16 205 11.3 20.9 0.00 0.00 0.00 34 1021.8
20260502161546 16 198 11.3 20.9 0.00 0.00 0.00 33 1021.9
20260502161024 16 174 11.3 24.1 0.00 0.00 0.00 35 1022.0
20260502160524 16 147 11.3 24.1 0.00 0.00 0.00 36 1021.9
20260502152026 14 140 11.3 16.1 0.00 0.00 0.00 38 1022.2
20260502151600 14 187 6.4 17.7 0.00 0.00 0.00 37 1022.1
20260502151023 14 163 9.7 17.7 0.00 0.00 0.00 37 1022.2
20260502150524 14 150 4.8 12.9 0.00 0.00 0.00 38 1022.2
20260502130524 8 198 1.6 8.0 0.00 0.00 0.00 53 1021.7
20260502123523 6 0 0.0 3.2 0.00 0.00 0.00 61 1021.7
20260502123044 7 0 0.0 3.2 0.00 0.00 0.00 62 1021.6
20260502122524 7 0 0.0 1.6 0.00 0.00 0.00 62 1021.5
20260502122027 7 0 0.0 0.0 0.00 0.00 0.00 62 1021.6
20260502121543 7 0 0.0 0.0 0.00 0.00 0.00 62 1021.6
20260502121026 7 0 0.0 0.0 0.00 0.00 0.00 62 1021.6
20260502120524 7 0 0.0 3.2 0.00 0.00 0.00 61 1021.5
20260502115523 8 0 0.0 6.4 0.00 0.00 0.00 61 1021.3
20260502115026 8 0 0.0 4.8 0.00 0.00 0.00 61 1021.5
20260502114544 8 0 0.0 8.0 0.00 0.00 0.00 60 1021.5
20260502114023 8 0 0.0 8.0 0.00 0.00 0.00 60 1021.4
20260502113524 8 0 1.6 9.7 0.00 0.00 0.00 60 1021.3
20260502113049 9 190 3.2 12.9 0.00 0.00 0.00 60 1021.4
20260502112522 9 200 3.2 14.5 0.00 0.00 0.00 61 1021.3
20260502112024 9 203 4.8 14.5 0.00 0.00 0.00 61 1021.4
20260502111544 10 182 6.4 16.1 0.00 0.00 0.00 60 1021.3
20260502111023 10 205 8.0 19.3 0.00 0.00 0.00 59 1021.4
20260502110524 10 195 8.0 19.3 0.00 0.00 0.00 57 1021.2
20260502110051 10 192 4.8 14.5 0.00 0.00 0.00 55 1021.4
20260502105527 10 215 3.2 14.5 0.00 0.00 0.00 52 1021.3
20260502105026 10 182 4.8 14.5 0.00 0.00 0.00 51 1021.3
20260502104544 10 181 6.4 12.9 0.00 0.00 0.00 50 1021.4
20260502104024 10 188 4.8 11.3 0.00 0.00 0.00 50 1021.4
20260502103525 10 182 4.8 11.3 0.00 0.00 0.00 50 1021.4
20260502103043 10 197 3.2 11.3 0.00 0.00 0.00 50 1021.3
20260502102523 10 196 3.2 11.3 0.00 0.00 0.00 51 1021.3
20260502102024 10 188 3.2 9.7 0.00 0.00 0.00 52 1021.3
20260502101543 10 0 1.6 9.7 0.00 0.00 0.00 51 1021.2
20260502101023 9 196 0.0 9.7 0.00 0.00 0.00 50 1021.2
20260502100523 9 195 1.6 9.7 0.00 0.00 0.00 50 1021.1
20260502091024 6 0 0.0 0.0 0.00 0.00 0.00 58 1021.2
20260502090523 6 0 0.0 0.0 0.00 0.00 0.00 58 1021.2
20260502071024 6 0 0.0 0.0 0.00 0.00 0.00 60 1021.4
20260502070524 6 0 0.0 0.0 0.00 0.00 0.00 61 1021.5
20260502070045 6 0 0.0 0.0 0.00 0.00 0.00 63 1021.6
20260502065524 6 0 0.0 0.0 0.00 0.00 0.00 62 1021.5
20260502065023 6 0 0.0 1.6 0.00 0.00 0.00 61 1021.5
20260502064556 6 0 0.0 1.6 0.00 0.00 0.00 60 1021.7
20260502064025 6 0 0.0 1.6 0.00 0.00 0.00 61 1021.6
20260502063527 6 0 0.0 0.0 0.00 0.00 0.00 61 1021.6
20260502063041 6 0 0.0 0.0 0.00 0.00 0.00 59 1021.6
20260502062527 6 0 0.0 0.0 0.00 0.00 0.00 58 1021.5
20260502062023 6 0 0.0 0.0 0.00 0.00 0.00 58 1021.5
20260502061539 7 0 0.0 0.0 0.00 0.00 0.00 58 1021.6
20260502061023 7 0 0.0 0.0 0.00 0.00 0.00 56 1021.5
20260502060522 7 0 0.0 0.0 0.00 0.00 0.00 55 1021.3
20260502060039 7 0 0.0 0.0 0.00 0.00 0.00 52 1021.2
20260502055524 7 0 0.0 3.2 0.00 0.00 0.00 53 1021.3
20260502055024 7 0 0.0 3.2 0.00 0.00 0.00 52 1021.2
20260502054554 7 286 0.0 3.2 0.00 0.00 0.00 52 1021.3
20260502054025 7 0 0.0 1.6 0.00 0.00 0.00 52 1021.3
20260502053522 7 0 0.0 1.6 0.00 0.00 0.00 52 1021.3
20260502053046 7 0 0.0 1.6 0.00 0.00 0.00 54 1021.1
20260502052528 8 0 0.0 0.0 0.00 0.00 0.00 52 1021.3
20260502052024 8 0 0.0 0.0 0.00 0.00 0.00 50 1021.3
20260502051544 8 0 0.0 0.0 0.00 0.00 0.00 51 1021.2
20260502051024 8 0 0.0 0.0 0.00 0.00 0.00 50 1021.3
20260502050526 8 0 0.0 0.0 0.00 0.00 0.00 49 1021.2
20260502050044 8 0 0.0 0.0 0.00 0.00 0.00 51 1021.2
20260502045523 8 0 0.0 0.0 0.00 0.00 0.00 49 1021.3
20260502045024 8 0 0.0 0.0 0.00 0.00 0.00 48 1021.3
20260502044540 9 0 0.0 0.0 0.00 0.00 0.00 47 1021.2
20260502044025 9 0 0.0 0.0 0.00 0.00 0.00 47 1021.3
20260502043524 10 0 0.0 0.0 0.00 0.00 0.00 44 1021.3
20260502043036 10 0 0.0 0.0 0.00 0.00 0.00 43 1021.5
20260502042524 10 0 0.0 3.2 0.00 0.00 0.00 43 1021.3
20260502042024 10 0 0.0 3.2 0.00 0.00 0.00 42 1021.3
20260502041545 10 0 0.0 3.2 0.00 0.00 0.00 42 1021.3
20260502041023 10 0 0.0 3.2 0.00 0.00 0.00 41 1021.3
20260502040523 11 0 0.0 3.2 0.00 0.00 0.00 41 1021.3
20260502040054 11 0 0.0 3.2 0.00 0.00 0.00 43 1021.2
20260502035523 11 286 0.0 1.6 0.00 0.00 0.00 41 1021.1
20260502035023 11 0 0.0 1.6 0.00 0.00 0.00 40 1021.1
20260502034540 11 0 0.0 3.2 0.00 0.00 0.00 38 1021.0
20260502034022 11 0 0.0 4.8 0.00 0.00 0.00 37 1020.9
20260502033522 11 0 0.0 4.8 0.00 0.00 0.00 38 1020.9
20260502033039 12 0 0.0 4.8 0.00 0.00 0.00 38 1021.0
20260502032523 12 0 0.0 4.8 0.00 0.00 0.00 37 1020.7
20260502032025 12 286 0.0 4.8 0.00 0.00 0.00 36 1020.4
20260502031544 12 0 0.0 4.8 0.00 0.00 0.00 35 1020.4
20260502031024 13 286 0.0 4.8 0.00 0.00 0.00 35 1020.3
20260502030524 13 0 1.6 4.8 0.00 0.00 0.00 35 1020.2
20260502030045 13 0 0.0 1.6 0.00 0.00 0.00 34 1020.2
20260502025525 13 0 0.0 4.8 0.00 0.00 0.00 33 1020.1
20260502025023 13 0 0.0 6.4 0.00 0.00 0.00 33 1020.2
20260502024545 14 0 0.0 6.4 0.00 0.00 0.00 32 1020.2
20260502024023 14 0 0.0 6.4 0.00 0.00 0.00 32 1020.3
20260502023523 15 0 0.0 3.2 0.00 0.00 0.00 31 1020.2
20260502023050 15 0 0.0 3.2 0.00 0.00 0.00 30 1020.1
20260502022524 15 288 0.0 4.8 0.00 0.00 0.00 29 1020.1
20260502022022 15 0 0.0 4.8 0.00 0.00 0.00 29 1019.9
20260502021539 15 0 1.6 6.4 0.00 0.00 0.00 28 1020.0
20260502021023 15 0 1.6 6.4 0.00 0.00 0.00 28 1019.9
20260502020523 16 296 0.0 9.7 0.00 0.00 0.00 28 1019.9
20260502020048 16 302 1.6 9.7 0.00 0.00 0.00 27 1019.9
20260502015523 16 286 3.2 14.5 0.00 0.00 0.00 26 1019.9
20260502015022 16 296 4.8 14.5 0.00 0.00 0.00 26 1019.8
20260502014551 16 295 3.2 14.5 0.00 0.00 0.00 27 1019.9
20260502014023 17 0 3.2 14.5 0.00 0.00 0.00 27 1019.8
20260502013523 17 297 3.2 14.5 0.00 0.00 0.00 27 1019.8
20260502013044 17 320 1.6 12.9 0.00 0.00 0.00 27 1019.9
20260502012524 17 281 1.6 12.9 0.00 0.00 0.00 27 1019.8
20260502012024 17 0 1.6 17.7 0.00 0.00 0.00 26 1019.7
20260502011546 17 312 3.2 17.7 0.00 0.00 0.00 26 1019.7
20260502011023 17 308 6.4 17.7 0.00 0.00 0.00 26 1019.8
20260502010522 17 316 3.2 9.7 0.00 0.00 0.00 27 1019.8
20260502010042 17 5 1.6 17.7 0.00 0.00 0.00 27 1019.8
20260502005524 17 308 6.4 17.7 0.00 0.00 0.00 26 1019.7
20260502005023 17 9 3.2 16.1 0.00 0.00 0.00 26 1019.8
20260502004550 17 300 4.8 14.5 0.00 0.00 0.00 26 1019.8
20260502004023 17 22 3.2 16.1 0.00 0.00 0.00 26 1019.7
20260502003524 18 360 8.0 16.1 0.00 0.00 0.00 26 1019.7
20260502003046 18 28 3.2 14.5 0.00 0.00 0.00 27 1019.8
20260502002522 18 289 3.2 16.1 0.00 0.00 0.00 26 1019.8
20260502002024 18 12 3.2 16.1 0.00 0.00 0.00 25 1019.7
20260502001622 18 5 4.8 16.1 0.00 0.00 0.00 25 1019.9
20260502001025 18 316 4.8 16.1 0.00 0.00 0.00 26 1019.9
20260502000524 18 360 4.8 17.7 0.00 0.00 0.00 26 1020.0
20260502000044 18 5 4.8 17.7 0.00 0.00 0.00 26 1019.9
20260501235526 18 292 3.2 19.3 0.00 0.00 0.00 26 1020.0
20260501235025 18 296 4.8 19.3 0.00 0.00 0.00 26 1019.9
20260501234540 18 288 8.0 17.7 0.00 0.00 0.00 26 1019.9
20260501234025 18 39 4.8 22.5 0.00 0.00 0.00 25 1019.9
20260501233527 18 329 8.0 22.5 0.00 0.00 0.00 26 1019.9
20260501233039 18 287 6.4 17.7 0.00 0.00 0.00 24 1020.0
20260501232528 18 297 4.8 17.7 0.00 0.00 0.00 25 1020.0
20260501232028 18 271 3.2 17.7 0.00 0.00 0.00 24 1019.9
20260501231545 18 26 4.8 17.7 0.00 0.00 0.00 25 1019.9
20260501231025 18 13 4.8 14.5 0.00 0.00 0.00 26 1019.9
20260501230528 18 38 6.4 14.5 0.00 0.00 0.00 24 1019.9
20260501230044 18 294 4.8 14.5 0.00 0.00 0.00 24 1020.1
20260501225525 18 0 4.8 14.5 0.00 0.00 0.00 25 1019.9
20260501225024 18 9 3.2 12.9 0.00 0.00 0.00 24 1019.9
20260501224556 18 306 1.6 16.1 0.00 0.00 0.00 24 1020.0
20260501224028 18 346 1.6 16.1 0.00 0.00 0.00 24 1019.9
20260501223524 18 30 8.0 22.5 0.00 0.00 0.00 25 1020.1
20260501223043 18 9 3.2 22.5 0.00 0.00 0.00 25 1020.0
20260501222524 18 10 8.0 20.9 0.00 0.00 0.00 23 1019.9
20260501222025 18 81 4.8 14.5 0.00 0.00 0.00 23 1020.0
20260501221546 18 36 3.2 12.9 0.00 0.00 0.00 23 1020.0
20260501221025 18 31 6.4 19.3 0.00 0.00 0.00 23 1020.1
20260501220526 18 69 8.0 19.3 0.00 0.00 0.00 23 1020.3
20260501220050 18 5 8.0 19.3 0.00 0.00 0.00 23 1020.2
20260501215523 18 352 8.0 19.3 0.00 0.00 0.00 23 1020.5
20260501215023 18 9 3.2 14.5 0.00 0.00 0.00 25 1020.3
20260501214545 18 352 4.8 14.5 0.00 0.00 0.00 24 1020.7
20260501214023 18 9 4.8 14.5 0.00 0.00 0.00 25 1020.5
20260501213524 18 34 4.8 16.1 0.00 0.00 0.00 24 1020.4
20260501213048 18 262 4.8 16.1 0.00 0.00 0.00 24 1020.4
20260501212525 18 46 3.2 16.1 0.00 0.00 0.00 25 1020.5
20260501212023 18 17 3.2 17.7 0.00 0.00 0.00 23 1020.6
20260501211542 18 68 6.4 20.9 0.00 0.00 0.00 24 1020.4
20260501211024 18 71 8.0 20.9 0.00 0.00 0.00 24 1020.4
20260501210523 18 45 3.2 17.7 0.00 0.00 0.00 26 1020.4
20260501210052 18 18 4.8 17.7 0.00 0.00 0.00 25 1020.4
20260501205523 17 5 9.7 17.7 0.00 0.00 0.00 26 1020.4
20260501205027 17 360 4.8 16.1 0.00 0.00 0.00 25 1020.5
20260501204547 17 0 6.4 16.1 0.00 0.00 0.00 24 1020.6
20260501204024 17 349 1.6 11.3 0.00 0.00 0.00 25 1020.7
20260501203523 17 295 4.8 12.9 0.00 0.00 0.00 25 1020.7
20260501203039 17 213 4.8 14.5 0.00 0.00 0.00 24 1020.8
20260501202521 17 5 3.2 14.5 0.00 0.00 0.00 24 1020.7
20260501202022 17 140 0.0 14.5 0.00 0.00 0.00 24 1020.7
20260501201546 17 0 6.4 14.5 0.00 0.00 0.00 24 1020.7
20260501201022 17 95 4.8 11.3 0.00 0.00 0.00 23 1020.7
20260501200523 17 65 3.2 17.7 0.00 0.00 0.00 25 1020.9
20260501200044 17 34 6.4 17.7 0.00 0.00 0.00 25 1020.9
20260501195523 17 15 3.2 16.1 0.00 0.00 0.00 26 1020.9
20260501195027 17 42 4.8 16.1 0.00 0.00 0.00 25 1021.0
20260501194540 17 5 4.8 14.5 0.00 0.00 0.00 26 1020.9
20260501194024 17 0 3.2 17.7 0.00 0.00 0.00 24 1020.9
20260501193523 17 17 4.8 17.7 0.00 0.00 0.00 25 1020.8
20260501193039 16 71 3.2 16.1 0.00 0.00 0.00 25 1020.9
20260501192523 16 283 3.2 20.9 0.00 0.00 0.00 24 1021.0
20260501192022 17 346 1.6 20.9 0.00 0.00 0.00 24 1021.0
20260501191538 17 302 4.8 20.9 0.00 0.00 0.00 26 1021.0
20260501191023 16 265 4.8 20.9 0.00 0.00 0.00 25 1020.9
20260501190526 16 5 6.4 20.9 0.00 0.00 0.00 23 1021.1
20260501190046 16 352 4.8 12.9 0.00 0.00 0.00 23 1021.3
20260501185523 16 0 3.2 16.1 0.00 0.00 0.00 24 1021.3
20260501185024 16 67 6.4 16.1 0.00 0.00 0.00 25 1021.2
20260501184545 16 30 4.8 16.1 0.00 0.00 0.00 26 1021.2
20260501184024 16 292 3.2 16.1 0.00 0.00 0.00 28 1021.3
20260501183526 16 294 4.8 16.1 0.00 0.00 0.00 27 1021.3
20260501183046 16 297 4.8 16.1 0.00 0.00 0.00 26 1021.3
20260501182523 16 311 4.8 16.1 0.00 0.00 0.00 26 1021.5
20260501182022 16 308 4.8 11.3 0.00 0.00 0.00 25 1021.5
20260501181543 16 278 4.8 16.1 0.00 0.00 0.00 26 1021.4
20260501181023 16 344 3.2 16.1 0.00 0.00 0.00 25 1021.5
20260501180523 16 15 4.8 16.1 0.00 0.00 0.00 25 1021.7
20260501180044 16 15 1.6 14.5 0.00 0.00 0.00 24 1021.5
20260501175523 16 34 4.8 14.5 0.00 0.00 0.00 26 1021.3
20260501175023 16 302 4.8 16.1 0.00 0.00 0.00 25 1021.5
20260501174546 16 42 4.8 16.1 0.00 0.00 0.00 28 1021.5
20260501174023 16 118 1.6 14.5 0.00 0.00 0.00 29 1021.6
20260501173524 16 0 1.6 11.3 0.00 0.00 0.00 30 1021.6
20260501173045 16 12 3.2 11.3 0.00 0.00 0.00 31 1021.6
20260501172521 15 292 4.8 11.3 0.00 0.00 0.00 31 1021.7
20260501172023 15 0 1.6 14.5 0.00 0.00 0.00 32 1021.7
20260501171542 15 309 3.2 14.5 0.00 0.00 0.00 30 1021.8
20260501171021 15 284 3.2 9.7 0.00 0.00 0.00 32 1021.8
20260501170523 15 33 4.8 9.7 0.00 0.00 0.00 31 1021.9
20260501170047 15 0 3.2 12.9 0.00 0.00 0.00 32 1021.9